owner,sensor,date,latitude,longitude,vertical_datum,wind_speed,wind_to_direction,wind_speed_of_gust,qcFlag 
TCOON,ioos:station:TCOON:003:1,2019-11-11T14:18:00Z,26.8015,-97.4706,0.0,2.8,136.0,3.7,'11111222,11111222,11111222' 
TCOON,ioos:station:TCOON:003:1,2019-11-11T15:18:00Z,26.8015,-97.4706,0.0,3.6,162.0,4.1,'11111222,11111222,11111222' 
TCOON,ioos:station:TCOON:003:1,2019-11-11T16:18:00Z,26.8015,-97.4706,0.0,5.0,159.0,5.7,'11111222,11111222,11111222' 
TCOON,ioos:station:TCOON:003:1,2019-11-11T17:18:00Z,26.8015,-97.4706,0.0,6.6,147.0,7.3,'11111222,11111222,11111222' 
TCOON,ioos:station:TCOON:003:1,2019-11-11T18:18:00Z,26.8015,-97.4706,0.0,7.2,148.0,8.1,'11111222,11111222,11111222' 
TCOON,ioos:station:TCOON:003:1,2019-11-11T19:18:00Z,26.8015,-97.4706,0.0,6.0,154.0,6.8,'11111222,11111222,11111222' 
TCOON,ioos:station:TCOON:003:1,2019-11-11T20:18:00Z,26.8015,-97.4706,0.0,5.6,145.0,6.6,'11111222,11111222,11111222' 
TCOON,ioos:station:TCOON:003:1,2019-11-11T21:18:00Z,26.8015,-97.4706,0.0,7.4,134.0,8.4,'11111222,11111222,11111222' 
TCOON,ioos:station:TCOON:003:1,2019-11-11T22:18:00Z,26.8015,-97.4706,0.0,5.5,128.0,6.3,'11111222,11111222,11111222' 
TCOON,ioos:station:TCOON:003:1,2019-11-11T23:18:00Z,26.8015,-97.4706,0.0,5.1,97.0,6.8,'11111222,11111222,11111222' 
TCOON,ioos:station:TCOON:003:1,2019-11-12T00:18:00Z,26.8015,-97.4706,0.0,4.1,80.0,5.5,'11111222,11111222,11111222' 
TCOON,ioos:station:TCOON:003:1,2019-11-12T01:18:00Z,26.8015,-97.4706,0.0,3.5,59.0,4.2,'11111222,11111222,11111222' 
TCOON,ioos:station:TCOON:003:1,2019-11-12T02:18:00Z,26.8015,-97.4706,0.0,16.3,7.0,19.9,'11111222,11111222,11111222' 
TCOON,ioos:station:TCOON:003:1,2019-11-12T03:18:00Z,26.8015,-97.4706,0.0,15.8,360.0,18.6,'11111222,11144222,11111222' 
TCOON,ioos:station:TCOON:003:1,2019-11-12T04:18:00Z,26.8015,-97.4706,0.0,18.5,358.0,20.6,'11111222,11111222,11111222' 
TCOON,ioos:station:TCOON:003:1,2019-11-12T05:18:00Z,26.8015,-97.4706,0.0,15.3,342.0,17.4,'11111222,11111222,11111222' 
TCOON,ioos:station:TCOON:003:1,2019-11-12T06:18:00Z,26.8015,-97.4706,0.0,14.2,348.0,18.4,'11111222,11111222,11111222' 
TCOON,ioos:station:TCOON:003:1,2019-11-12T07:18:00Z,26.8015,-97.4706,0.0,13.6,339.0,15.3,'11111222,11111222,11111222' 
TCOON,ioos:station:TCOON:003:1,2019-11-12T08:18:00Z,26.8015,-97.4706,0.0,12.6,340.0,16.3,'11111222,11111222,11111222' 
TCOON,ioos:station:TCOON:003:1,2019-11-12T09:18:00Z,26.8015,-97.4706,0.0,15.9,344.0,17.5,'11111222,11111222,11111222' 
TCOON,ioos:station:TCOON:003:1,2019-11-12T10:18:00Z,26.8015,-97.4706,0.0,15.3,345.0,18.3,'11111222,11111222,11111222' 
TCOON,ioos:station:TCOON:003:1,2019-11-12T11:18:00Z,26.8015,-97.4706,0.0,15.0,338.0,16.9,'11111222,11111222,11111222' 
TCOON,ioos:station:TCOON:003:1,2019-11-12T12:18:00Z,26.8015,-97.4706,0.0,15.7,342.0,18.3,'11111222,11111222,11111222' 
TCOON,ioos:station:TCOON:003:1,2019-11-12T13:18:00Z,26.8015,-97.4706,0.0,13.1,341.0,16.3,'11111222,11111222,11111222' 
TCOON,ioos:station:TCOON:003:1,2019-11-12T14:18:00Z,26.8015,-97.4706,0.0,12.8,337.0,14.9,'11111222,11111222,11111222' 
TCOON,ioos:station:TCOON:003:1,2019-11-12T15:18:00Z,26.8015,-97.4706,0.0,12.6,333.0,14.1,'11111222,11111222,11111222' 
TCOON,ioos:station:TCOON:003:1,2019-11-12T16:18:00Z,26.8015,-97.4706,0.0,10.4,332.0,13.4,'11111222,11111222,11111222' 
TCOON,ioos:station:TCOON:003:1,2019-11-12T17:18:00Z,26.8015,-97.4706,0.0,11.8,328.0,13.6,'11111222,11111222,11111222' 
TCOON,ioos:station:TCOON:003:1,2019-11-12T18:18:00Z,26.8015,-97.4706,0.0,12.0,339.0,13.4,'11111222,11111222,11111222' 
TCOON,ioos:station:TCOON:003:1,2019-11-12T19:18:00Z,26.8015,-97.4706,0.0,10.8,335.0,13.4,'11111222,11111222,11111222' 
TCOON,ioos:station:TCOON:003:1,2019-11-12T20:18:00Z,26.8015,-97.4706,0.0,8.4,331.0,10.6,'11111222,11111222,11111222' 
TCOON,ioos:station:TCOON:003:1,2019-11-12T21:18:00Z,26.8015,-97.4706,0.0,7.1,322.0,9.3,'11111222,11111222,11111222' 
TCOON,ioos:station:TCOON:003:1,2019-11-12T22:18:00Z,26.8015,-97.4706,0.0,8.5,329.0,9.7,'11111222,11111222,11111222' 
TCOON,ioos:station:TCOON:003:1,2019-11-12T23:18:00Z,26.8015,-97.4706,0.0,6.5,322.0,8.1,'11111222,11111222,11111222' 
TCOON,ioos:station:TCOON:003:1,2019-11-13T00:18:00Z,26.8015,-97.4706,0.0,6.3,329.0,7.0,'11111222,11111222,11111222' 
TCOON,ioos:station:TCOON:003:1,2019-11-13T01:18:00Z,26.8015,-97.4706,0.0,5.4,310.0,6.1,'11111222,11111222,11111222' 
TCOON,ioos:station:TCOON:003:1,2019-11-13T02:18:00Z,26.8015,-97.4706,0.0,5.4,318.0,6.9,'11111222,11111222,11111222' 
TCOON,ioos:station:TCOON:003:1,2019-11-13T03:18:00Z,26.8015,-97.4706,0.0,5.4,300.0,6.3,'11111222,11111222,11111222' 
TCOON,ioos:station:TCOON:003:1,2019-11-13T04:18:00Z,26.8015,-97.4706,0.0,5.5,280.0,6.2,'11111222,11111222,11111222' 
TCOON,ioos:station:TCOON:003:1,2019-11-13T05:18:00Z,26.8015,-97.4706,0.0,6.0,273.0,6.5,'11111222,11111222,11111222' 
TCOON,ioos:station:TCOON:003:1,2019-11-13T06:18:00Z,26.8015,-97.4706,0.0,7.2,318.0,8.4,'11111222,11111222,11111222' 
TCOON,ioos:station:TCOON:003:1,2019-11-13T07:18:00Z,26.8015,-97.4706,0.0,6.2,319.0,7.5,'11111222,11111222,11111222' 
TCOON,ioos:station:TCOON:003:1,2019-11-13T08:18:00Z,26.8015,-97.4706,0.0,6.3,322.0,7.1,'11111222,11111222,11111222' 
TCOON,ioos:station:TCOON:003:1,2019-11-13T09:18:00Z,26.8015,-97.4706,0.0,6.2,329.0,6.9,'11111222,11111222,11111222' 
TCOON,ioos:station:TCOON:003:1,2019-11-13T10:18:00Z,26.8015,-97.4706,0.0,6.2,336.0,7.5,'11111222,11111222,11111222' 
TCOON,ioos:station:TCOON:003:1,2019-11-13T11:18:00Z,26.8015,-97.4706,0.0,6.8,333.0,7.8,'11111222,11111222,11111222' 
TCOON,ioos:station:TCOON:003:1,2019-11-13T12:18:00Z,26.8015,-97.4706,0.0,6.3,329.0,7.4,'11111222,11111222,11111222' 
TCOON,ioos:station:TCOON:003:1,2019-11-13T13:18:00Z,26.8015,-97.4706,0.0,6.6,322.0,7.5,'11111222,11111222,11111222' 
TCOON,ioos:station:TCOON:003:1,2019-11-13T14:18:00Z,26.8015,-97.4706,0.0,6.8,326.0,7.7,'11111222,11111222,11111222' 
TCOON,ioos:station:TCOON:003:1,2019-11-13T15:18:00Z,26.8015,-97.4706,0.0,6.8,330.0,7.8,'11111222,11111222,11111222' 
TCOON,ioos:station:TCOON:003:1,2019-11-13T16:24:00Z,26.8015,-97.4706,0.0,6.1,318.0,7.1,'11111222,11111222,11111222' 
TCOON,ioos:station:TCOON:003:1,2019-11-13T17:24:00Z,26.8015,-97.4706,0.0,5.8,323.0,6.7,'11111222,11111222,11111222' 
TCOON,ioos:station:TCOON:003:1,2019-11-13T18:24:00Z,26.8015,-97.4706,0.0,6.5,325.0,7.5,'11111222,11111222,11111222' 
TCOON,ioos:station:TCOON:003:1,2019-11-13T19:24:00Z,26.8015,-97.4706,0.0,6.5,338.0,7.2,'11111222,11111222,11111222' 
TCOON,ioos:station:TCOON:003:1,2019-11-13T20:18:00Z,26.8015,-97.4706,0.0,7.1,325.0,7.9,'11111222,11111222,11111222' 
TCOON,ioos:station:TCOON:003:1,2019-11-13T21:18:00Z,26.8015,-97.4706,0.0,6.7,325.0,7.2,'11111222,11111222,11111222' 
TCOON,ioos:station:TCOON:003:1,2019-11-13T22:18:00Z,26.8015,-97.4706,0.0,4.8,338.0,5.9,'11111222,11111222,11111222' 
TCOON,ioos:station:TCOON:003:1,2019-11-13T23:18:00Z,26.8015,-97.4706,0.0,5.4,4.0,6.0,'11111222,11111222,11111222' 
TCOON,ioos:station:TCOON:003:1,2019-11-14T00:18:00Z,26.8015,-97.4706,0.0,5.8,328.0,6.8,'11111222,11111222,11111222' 
TCOON,ioos:station:TCOON:003:1,2019-11-14T01:18:00Z,26.8015,-97.4706,0.0,5.0,316.0,6.0,'11111222,11111222,11111222' 
TCOON,ioos:station:TCOON:003:1,2019-11-14T02:18:00Z,26.8015,-97.4706,0.0,5.5,341.0,6.0,'11111222,11111222,11111222' 
TCOON,ioos:station:TCOON:003:1,2019-11-14T03:18:00Z,26.8015,-97.4706,0.0,4.5,337.0,5.2,'11111222,11111222,11111222' 
TCOON,ioos:station:TCOON:003:1,2019-11-14T04:18:00Z,26.8015,-97.4706,0.0,4.4,323.0,5.1,'11111222,11111222,11111222' 
TCOON,ioos:station:TCOON:003:1,2019-11-14T05:18:00Z,26.8015,-97.4706,0.0,5.4,327.0,6.3,'11111222,11111222,11111222' 
TCOON,ioos:station:TCOON:003:1,2019-11-14T06:18:00Z,26.8015,-97.4706,0.0,4.7,317.0,6.2,'11111222,11111222,11111222' 
TCOON,ioos:station:TCOON:003:1,2019-11-14T07:18:00Z,26.8015,-97.4706,0.0,5.1,329.0,5.6,'11111222,11111222,11111222' 
TCOON,ioos:station:TCOON:003:1,2019-11-14T08:18:00Z,26.8015,-97.4706,0.0,7.4,299.0,8.4,'11111222,11111222,11111222' 
TCOON,ioos:station:TCOON:003:1,2019-11-14T09:18:00Z,26.8015,-97.4706,0.0,3.4,11.0,4.8,'11111222,11111222,11111222' 
TCOON,ioos:station:TCOON:003:1,2019-11-14T10:18:00Z,26.8015,-97.4706,0.0,8.6,307.0,9.7,'11111222,11111222,11111222' 
TCOON,ioos:station:TCOON:003:1,2019-11-14T11:18:00Z,26.8015,-97.4706,0.0,5.9,30.0,7.4,'11111222,11111222,11111222' 
TCOON,ioos:station:TCOON:003:1,2019-11-14T12:18:00Z,26.8015,-97.4706,0.0,5.6,333.0,6.4,'11111222,11111222,11111222' 
TCOON,ioos:station:TCOON:003:1,2019-11-14T13:18:00Z,26.8015,-97.4706,0.0,5.7,338.0,7.0,'11111222,11111222,11111222' 
TCOON,ioos:station:TCOON:003:1,2019-11-14T14:18:00Z,26.8015,-97.4706,0.0,5.7,336.0,7.0,'11111222,11111222,11111222' 
TCOON,ioos:station:TCOON:003:1,2019-11-14T15:18:00Z,26.8015,-97.4706,0.0,6.3,326.0,7.3,'11111222,11111222,11111222' 
TCOON,ioos:station:TCOON:003:1,2019-11-14T16:18:00Z,26.8015,-97.4706,0.0,6.2,316.0,7.5,'11111222,11111222,11111222' 
TCOON,ioos:station:TCOON:003:1,2019-11-14T17:18:00Z,26.8015,-97.4706,0.0,7.5,319.0,8.2,'11111222,11111222,11111222' 
TCOON,ioos:station:TCOON:003:1,2019-11-14T18:18:00Z,26.8015,-97.4706,0.0,6.5,320.0,7.2,'11111222,11111222,11111222' 
TCOON,ioos:station:TCOON:003:1,2019-11-14T19:18:00Z,26.8015,-97.4706,0.0,7.3,338.0,8.3,'11111222,11111222,11111222' 
TCOON,ioos:station:TCOON:003:1,2019-11-14T20:18:00Z,26.8015,-97.4706,0.0,9.4,334.0,11.2,'11111222,11111222,11111222' 
TCOON,ioos:station:TCOON:003:1,2019-11-14T21:18:00Z,26.8015,-97.4706,0.0,10.3,339.0,12.1,'11111222,11111222,11111222' 
TCOON,ioos:station:TCOON:003:1,2019-11-14T22:18:00Z,26.8015,-97.4706,0.0,10.8,337.0,12.5,'11111222,11111222,11111222' 
TCOON,ioos:station:TCOON:003:1,2019-11-14T23:18:00Z,26.8015,-97.4706,0.0,8.8,339.0,12.3,'11111222,11111222,11111222' 
TCOON,ioos:station:TCOON:003:1,2019-11-15T00:18:00Z,26.8015,-97.4706,0.0,9.2,342.0,11.3,'11111222,11111222,11111222' 
TCOON,ioos:station:TCOON:003:1,2019-11-15T01:18:00Z,26.8015,-97.4706,0.0,9.7,2.0,11.7,'11111222,11111222,11111222' 
TCOON,ioos:station:TCOON:003:1,2019-11-15T02:18:00Z,26.8015,-97.4706,0.0,8.2,346.0,9.9,'11111222,11111222,11111222' 
TCOON,ioos:station:TCOON:003:1,2019-11-15T03:18:00Z,26.8015,-97.4706,0.0,7.5,346.0,9.4,'11111222,11111222,11111222' 
TCOON,ioos:station:TCOON:003:1,2019-11-15T04:18:00Z,26.8015,-97.4706,0.0,8.1,336.0,10.0,'11111222,11111222,11111222' 
TCOON,ioos:station:TCOON:003:1,2019-11-15T05:18:00Z,26.8015,-97.4706,0.0,8.1,332.0,9.4,'11111222,11111222,11111222' 
TCOON,ioos:station:TCOON:003:1,2019-11-15T06:18:00Z,26.8015,-97.4706,0.0,7.3,327.0,9.4,'11111222,11111222,11111222' 
TCOON,ioos:station:TCOON:003:1,2019-11-15T07:18:00Z,26.8015,-97.4706,0.0,8.8,323.0,10.1,'11111222,11111222,11111222' 
TCOON,ioos:station:TCOON:003:1,2019-11-15T08:18:00Z,26.8015,-97.4706,0.0,8.7,329.0,9.9,'11111222,11111222,11111222' 
TCOON,ioos:station:TCOON:003:1,2019-11-15T09:18:00Z,26.8015,-97.4706,0.0,7.8,333.0,8.9,'11111222,11111222,11111222' 
TCOON,ioos:station:TCOON:003:1,2019-11-15T10:18:00Z,26.8015,-97.4706,0.0,7.2,334.0,8.5,'11111222,11111222,11111222' 
TCOON,ioos:station:TCOON:003:1,2019-11-15T11:18:00Z,26.8015,-97.4706,0.0,6.3,337.0,8.5,'11111222,11111222,11111222' 
TCOON,ioos:station:TCOON:003:1,2019-11-15T12:18:00Z,26.8015,-97.4706,0.0,7.3,338.0,8.7,'11111222,11111222,11111222' 
TCOON,ioos:station:TCOON:003:1,2019-11-15T13:18:00Z,26.8015,-97.4706,0.0,7.8,341.0,8.5,'11111222,11111222,11111222' 
TCOON,ioos:station:TCOON:003:1,2019-11-15T14:18:00Z,26.8015,-97.4706,0.0,8.5,345.0,9.2,'11111222,11111222,11111222' 
TCOON,ioos:station:TCOON:003:1,2019-11-15T15:18:00Z,26.8015,-97.4706,0.0,8.3,348.0,10.5,'11111222,11111222,11111222' 
TCOON,ioos:station:TCOON:003:1,2019-11-15T16:18:00Z,26.8015,-97.4706,0.0,8.0,2.0,9.2,'11111222,11111222,11111222' 
TCOON,ioos:station:TCOON:003:1,2019-11-15T17:18:00Z,26.8015,-97.4706,0.0,7.3,359.0,8.7,'11111222,11111222,11111222' 
TCOON,ioos:station:TCOON:003:1,2019-11-15T18:18:00Z,26.8015,-97.4706,0.0,6.1,5.0,7.6,'11111222,11111222,11111222' 
TCOON,ioos:station:TCOON:003:1,2019-11-15T19:18:00Z,26.8015,-97.4706,0.0,8.8,23.0,10.1,'11111222,11111222,11111222' 
TCOON,ioos:station:TCOON:003:1,2019-11-15T20:24:00Z,26.8015,-97.4706,0.0,7.5,24.0,8.8,'11111222,11111222,11111222' 
TCOON,ioos:station:TCOON:003:1,2019-11-15T21:36:00Z,26.8015,-97.4706,0.0,7.0,25.0,8.6,'11111222,11111222,11111222' 
TCOON,ioos:station:TCOON:003:1,2019-11-15T22:18:00Z,26.8015,-97.4706,0.0,6.3,29.0,7.6,'11111222,11111222,11111222' 
TCOON,ioos:station:TCOON:003:1,2019-11-15T23:18:00Z,26.8015,-97.4706,0.0,5.7,29.0,6.5,'11111222,11111222,11111222' 
TCOON,ioos:station:TCOON:003:1,2019-11-16T00:18:00Z,26.8015,-97.4706,0.0,2.5,27.0,2.9,'11111222,11111222,11111222' 
TCOON,ioos:station:TCOON:003:1,2019-11-16T01:18:00Z,26.8015,-97.4706,0.0,1.5,39.0,1.6,'11111222,11111222,11111222' 
TCOON,ioos:station:TCOON:003:1,2019-11-16T02:18:00Z,26.8015,-97.4706,0.0,1.2,5.0,1.5,'11111222,11111222,11111222' 
TCOON,ioos:station:TCOON:003:1,2019-11-16T03:18:00Z,26.8015,-97.4706,0.0,0.9,278.0,0.9,'11111222,11111222,11111222' 
TCOON,ioos:station:TCOON:003:1,2019-11-16T04:18:00Z,26.8015,-97.4706,0.0,1.7,332.0,1.7,'11111222,11111222,11111222' 
TCOON,ioos:station:TCOON:003:1,2019-11-16T05:18:00Z,26.8015,-97.4706,0.0,2.1,324.0,2.6,'11111222,11111222,11111222' 
TCOON,ioos:station:TCOON:003:1,2019-11-16T06:18:00Z,26.8015,-97.4706,0.0,2.1,299.0,2.2,'11111222,11111222,11111222' 
TCOON,ioos:station:TCOON:003:1,2019-11-16T07:18:00Z,26.8015,-97.4706,0.0,2.4,293.0,2.5,'11111222,11111222,11111222' 
TCOON,ioos:station:TCOON:003:1,2019-11-16T08:18:00Z,26.8015,-97.4706,0.0,2.7,299.0,3.0,'11111222,11111222,11111222' 
TCOON,ioos:station:TCOON:003:1,2019-11-16T09:18:00Z,26.8015,-97.4706,0.0,3.6,278.0,4.3,'11111222,11111222,11111222' 
TCOON,ioos:station:TCOON:003:1,2019-11-16T10:18:00Z,26.8015,-97.4706,0.0,4.2,301.0,5.1,'11111222,11111222,11111222' 
TCOON,ioos:station:TCOON:003:1,2019-11-16T11:18:00Z,26.8015,-97.4706,0.0,3.2,309.0,3.5,'11111222,11111222,11111222' 
TCOON,ioos:station:TCOON:003:1,2019-11-16T12:18:00Z,26.8015,-97.4706,0.0,3.0,322.0,3.3,'11111222,11111222,11111222' 
TCOON,ioos:station:TCOON:003:1,2019-11-16T13:18:00Z,26.8015,-97.4706,0.0,4.2,346.0,4.6,'11111222,11111222,11111222' 
TCOON,ioos:station:TCOON:003:1,2019-11-16T14:18:00Z,26.8015,-97.4706,0.0,3.4,357.0,4.5,'11111222,11111222,11111222' 
TCOON,ioos:station:TCOON:003:1,2019-11-16T15:18:00Z,26.8015,-97.4706,0.0,4.5,6.0,4.9,'11111222,11111222,11111222' 
TCOON,ioos:station:TCOON:003:1,2019-11-16T16:18:00Z,26.8015,-97.4706,0.0,6.0,18.0,6.9,'11111222,11111222,11111222' 
TCOON,ioos:station:TCOON:003:1,2019-11-16T17:18:00Z,26.8015,-97.4706,0.0,5.5,11.0,6.7,'11111222,11111222,11111222' 
TCOON,ioos:station:TCOON:003:1,2019-11-16T18:18:00Z,26.8015,-97.4706,0.0,4.6,25.0,5.9,'11111222,11111222,11111222' 
TCOON,ioos:station:TCOON:003:1,2019-11-16T19:18:00Z,26.8015,-97.4706,0.0,1.3,56.0,4.6,'11111222,11111222,11111222' 
TCOON,ioos:station:TCOON:003:1,2019-11-16T20:18:00Z,26.8015,-97.4706,0.0,2.1,42.0,3.8,'11111222,11111222,11111222' 
TCOON,ioos:station:TCOON:003:1,2019-11-16T21:18:00Z,26.8015,-97.4706,0.0,3.5,77.0,5.1,'11111222,11111222,11111222' 
TCOON,ioos:station:TCOON:003:1,2019-11-16T22:18:00Z,26.8015,-97.4706,0.0,4.3,63.0,5.1,'11111222,11111222,11111222' 
TCOON,ioos:station:TCOON:003:1,2019-11-16T23:18:00Z,26.8015,-97.4706,0.0,3.7,77.0,4.7,'11111222,11111222,11111222' 
TCOON,ioos:station:TCOON:003:1,2019-11-17T00:18:00Z,26.8015,-97.4706,0.0,2.9,106.0,3.3,'11111222,11111222,11111222' 
TCOON,ioos:station:TCOON:003:1,2019-11-17T01:18:00Z,26.8015,-97.4706,0.0,0.1,202.0,0.4,'11111222,11111222,11111222' 
TCOON,ioos:station:TCOON:003:1,2019-11-17T02:18:00Z,26.8015,-97.4706,0.0,0.1,178.0,0.4,'11111222,11111222,11111222' 
TCOON,ioos:station:TCOON:003:1,2019-11-17T03:18:00Z,26.8015,-97.4706,0.0,1.0,150.0,1.4,'11111222,11111222,11111222' 
TCOON,ioos:station:TCOON:003:1,2019-11-17T04:18:00Z,26.8015,-97.4706,0.0,2.3,116.0,2.5,'11111222,11111222,11111222' 
TCOON,ioos:station:TCOON:003:1,2019-11-17T05:18:00Z,26.8015,-97.4706,0.0,1.6,108.0,2.1,'11111222,11111222,11111222' 
TCOON,ioos:station:TCOON:003:1,2019-11-17T06:18:00Z,26.8015,-97.4706,0.0,0.0,115.0,1.1,'11111222,11111222,11111222' 
TCOON,ioos:station:TCOON:003:1,2019-11-17T07:18:00Z,26.8015,-97.4706,0.0,0.9,162.0,0.9,'11111222,11111222,11111222' 
TCOON,ioos:station:TCOON:003:1,2019-11-17T08:18:00Z,26.8015,-97.4706,0.0,0.9,141.0,1.3,'11111222,11111222,11111222' 
TCOON,ioos:station:TCOON:003:1,2019-11-17T09:18:00Z,26.8015,-97.4706,0.0,1.3,161.0,1.4,'11111222,11111222,11111222' 
TCOON,ioos:station:TCOON:003:1,2019-11-17T10:18:00Z,26.8015,-97.4706,0.0,2.0,170.0,2.3,'11111222,11111222,11111222' 
TCOON,ioos:station:TCOON:003:1,2019-11-17T11:18:00Z,26.8015,-97.4706,0.0,1.6,135.0,1.9,'11111222,11111222,11111222' 
TCOON,ioos:station:TCOON:003:1,2019-11-17T12:18:00Z,26.8015,-97.4706,0.0,0.2,161.0,0.8,'11111222,11111222,11111222' 
TCOON,ioos:station:TCOON:003:1,2019-11-17T13:18:00Z,26.8015,-97.4706,0.0,0.1,206.0,0.5,'11111222,11111222,11111222' 
TCOON,ioos:station:TCOON:003:1,2019-11-17T14:18:00Z,26.8015,-97.4706,0.0,0.9,93.0,1.5,'11111222,11111222,11111222' 
TCOON,ioos:station:TCOON:003:1,2019-11-17T15:18:00Z,26.8015,-97.4706,0.0,1.7,126.0,1.9,'11111222,11111222,11111222' 
TCOON,ioos:station:TCOON:003:1,2019-11-17T16:18:00Z,26.8015,-97.4706,0.0,2.9,143.0,3.1,'11111222,11111222,11111222' 
TCOON,ioos:station:TCOON:003:1,2019-11-17T17:18:00Z,26.8015,-97.4706,0.0,2.8,150.0,2.9,'11111222,11111222,11111222' 
TCOON,ioos:station:TCOON:003:1,2019-11-17T18:18:00Z,26.8015,-97.4706,0.0,2.5,147.0,3.7,'11111222,11111222,11111222' 
TCOON,ioos:station:TCOON:003:1,2019-11-17T19:18:00Z,26.8015,-97.4706,0.0,4.3,119.0,5.0,'11111222,11111222,11111222' 
TCOON,ioos:station:TCOON:003:1,2019-11-17T20:18:00Z,26.8015,-97.4706,0.0,4.5,113.0,5.4,'11111222,11111222,11111222' 
TCOON,ioos:station:TCOON:003:1,2019-11-17T21:18:00Z,26.8015,-97.4706,0.0,4.8,120.0,5.6,'11111222,11111222,11111222' 
TCOON,ioos:station:TCOON:003:1,2019-11-17T22:18:00Z,26.8015,-97.4706,0.0,5.2,119.0,6.1,'11111222,11111222,11111222' 
TCOON,ioos:station:TCOON:003:1,2019-11-17T23:18:00Z,26.8015,-97.4706,0.0,3.4,97.0,4.5,'11111222,11111222,11111222' 
TCOON,ioos:station:TCOON:003:1,2019-11-18T00:18:00Z,26.8015,-97.4706,0.0,2.7,98.0,3.3,'11111222,11111222,11111222' 
TCOON,ioos:station:TCOON:003:1,2019-11-18T01:18:00Z,26.8015,-97.4706,0.0,2.6,102.0,3.2,'11111222,11111222,11111222' 
TCOON,ioos:station:TCOON:003:1,2019-11-18T02:18:00Z,26.8015,-97.4706,0.0,2.6,86.0,2.9,'11111222,11111222,11111222' 
TCOON,ioos:station:TCOON:003:1,2019-11-18T03:18:00Z,26.8015,-97.4706,0.0,2.8,99.0,3.2,'11111222,11111222,11111222' 
TCOON,ioos:station:TCOON:003:1,2019-11-18T04:18:00Z,26.8015,-97.4706,0.0,1.5,97.0,1.9,'11111222,11111222,11111222' 
TCOON,ioos:station:TCOON:003:1,2019-11-18T05:18:00Z,26.8015,-97.4706,0.0,0.7,240.0,0.8,'11111222,11111222,11111222' 
TCOON,ioos:station:TCOON:003:1,2019-11-18T06:18:00Z,26.8015,-97.4706,0.0,0.7,235.0,0.9,'11111222,11111222,11111222' 
TCOON,ioos:station:TCOON:003:1,2019-11-18T07:18:00Z,26.8015,-97.4706,0.0,1.4,331.0,1.4,'11111222,11111222,11111222' 
TCOON,ioos:station:TCOON:003:1,2019-11-18T08:18:00Z,26.8015,-97.4706,0.0,0.6,324.0,0.8,'11111222,11111222,11111222' 
TCOON,ioos:station:TCOON:003:1,2019-11-18T09:18:00Z,26.8015,-97.4706,0.0,0.0,329.0,0.0,'11111222,11111222,11111222' 
TCOON,ioos:station:TCOON:003:1,2019-11-18T10:18:00Z,26.8015,-97.4706,0.0,2.4,339.0,2.5,'11111222,11111222,11111222' 
TCOON,ioos:station:TCOON:003:1,2019-11-18T11:18:00Z,26.8015,-97.4706,0.0,0.6,264.0,0.7,'11111222,11111222,11111222' 
TCOON,ioos:station:TCOON:003:1,2019-11-18T12:18:00Z,26.8015,-97.4706,0.0,0.5,224.0,0.7,'11111222,11111222,11111222' 
TCOON,ioos:station:TCOON:003:1,2019-11-18T13:18:00Z,26.8015,-97.4706,0.0,1.9,263.0,2.3,'11111222,11111222,11111222' 
TCOON,ioos:station:TCOON:003:1,2019-11-18T14:18:00Z,26.8015,-97.4706,0.0,4.3,313.0,4.7,'11111222,11111222,11111222' 
TCOON,ioos:station:TCOON:003:1,2019-11-18T15:18:00Z,26.8015,-97.4706,0.0,2.4,309.0,3.6,'11111222,11111222,11111222' 
TCOON,ioos:station:TCOON:003:1,2019-11-18T16:18:00Z,26.8015,-97.4706,0.0,3.3,325.0,3.9,'11111222,11111222,11111222' 
TCOON,ioos:station:TCOON:003:1,2019-11-18T17:18:00Z,26.8015,-97.4706,0.0,1.5,315.0,1.8,'11111222,11111222,11111222' 
TCOON,ioos:station:TCOON:003:1,2019-11-18T18:18:00Z,26.8015,-97.4706,0.0,1.3,7.0,3.6,'11111222,11111222,11111222' 
TCOON,ioos:station:TCOON:003:1,2019-11-18T19:18:00Z,26.8015,-97.4706,0.0,4.0,48.0,5.5,'11111222,11111222,11111222' 
TCOON,ioos:station:TCOON:003:1,2019-11-18T20:18:00Z,26.8015,-97.4706,0.0,5.0,75.0,6.0,'11111222,11111222,11111222' 
TCOON,ioos:station:TCOON:003:1,2019-11-18T21:18:00Z,26.8015,-97.4706,0.0,6.0,68.0,7.2,'11111222,11111222,11111222' 
TCOON,ioos:station:TCOON:003:1,2019-11-18T22:18:00Z,26.8015,-97.4706,0.0,5.4,81.0,6.4,'11111222,11111222,11111222' 
TCOON,ioos:station:TCOON:003:1,2019-11-18T23:18:00Z,26.8015,-97.4706,0.0,5.5,72.0,6.3,'11111222,11111222,11111222' 
TCOON,ioos:station:TCOON:003:1,2019-11-19T00:18:00Z,26.8015,-97.4706,0.0,3.6,78.0,4.9,'11111222,11111222,11111222' 
TCOON,ioos:station:TCOON:003:1,2019-11-19T01:18:00Z,26.8015,-97.4706,0.0,2.6,101.0,3.1,'11111222,11111222,11111222' 
TCOON,ioos:station:TCOON:003:1,2019-11-19T02:18:00Z,26.8015,-97.4706,0.0,1.8,115.0,2.4,'11111222,11111222,11111222' 
TCOON,ioos:station:TCOON:003:1,2019-11-19T03:18:00Z,26.8015,-97.4706,0.0,1.4,148.0,1.8,'11111222,11111222,11111222' 
TCOON,ioos:station:TCOON:003:1,2019-11-19T04:18:00Z,26.8015,-97.4706,0.0,1.0,121.0,1.2,'11111222,11111222,11111222' 
TCOON,ioos:station:TCOON:003:1,2019-11-19T05:18:00Z,26.8015,-97.4706,0.0,0.9,95.0,1.5,'11111222,11111222,11111222' 
TCOON,ioos:station:TCOON:003:1,2019-11-19T06:18:00Z,26.8015,-97.4706,0.0,1.2,104.0,1.4,'11111222,11111222,11111222' 
TCOON,ioos:station:TCOON:003:1,2019-11-19T07:18:00Z,26.8015,-97.4706,0.0,1.0,156.0,1.5,'11111222,11111222,11111222' 
TCOON,ioos:station:TCOON:003:1,2019-11-19T08:18:00Z,26.8015,-97.4706,0.0,1.1,236.0,1.3,'11111222,11111222,11111222' 
TCOON,ioos:station:TCOON:003:1,2019-11-19T09:18:00Z,26.8015,-97.4706,0.0,0.7,228.0,0.9,'11111222,11111222,11111222' 
TCOON,ioos:station:TCOON:003:1,2019-11-19T10:18:00Z,26.8015,-97.4706,0.0,0.2,250.0,0.4,'11111222,11111222,11111222' 
TCOON,ioos:station:TCOON:003:1,2019-11-19T11:18:00Z,26.8015,-97.4706,0.0,1.0,268.0,1.1,'11111222,11111222,11111222' 
TCOON,ioos:station:TCOON:003:1,2019-11-19T12:18:00Z,26.8015,-97.4706,0.0,0.5,314.0,0.6,'11111222,11111222,11111222' 
TCOON,ioos:station:TCOON:003:1,2019-11-19T13:18:00Z,26.8015,-97.4706,0.0,2.1,352.0,2.2,'11111222,11111222,11111222' 
TCOON,ioos:station:TCOON:003:1,2019-11-19T14:18:00Z,26.8015,-97.4706,0.0,1.9,347.0,2.2,'11111222,11111222,11111222' 
TCOON,ioos:station:TCOON:003:1,2019-11-19T15:18:00Z,26.8015,-97.4706,0.0,0.7,323.0,0.9,'11111222,11111222,11111222' 
TCOON,ioos:station:TCOON:003:1,2019-11-19T16:18:00Z,26.8015,-97.4706,0.0,1.6,106.0,2.0,'11111222,11111222,11111222' 
TCOON,ioos:station:TCOON:003:1,2019-11-19T17:18:00Z,26.8015,-97.4706,0.0,1.8,184.0,1.9,'11111222,11111222,11111222' 
TCOON,ioos:station:TCOON:003:1,2019-11-19T18:18:00Z,26.8015,-97.4706,0.0,2.3,176.0,2.7,'11111222,11111222,11111222' 
TCOON,ioos:station:TCOON:003:1,2019-11-19T19:18:00Z,26.8015,-97.4706,0.0,3.3,176.0,3.6,'11111222,11111222,11111222' 
TCOON,ioos:station:TCOON:003:1,2019-11-19T20:18:00Z,26.8015,-97.4706,0.0,2.6,167.0,2.8,'11111222,11111222,11111222' 
TCOON,ioos:station:TCOON:003:1,2019-11-19T21:18:00Z,26.8015,-97.4706,0.0,4.1,141.0,4.8,'11111222,11111222,11111222' 
TCOON,ioos:station:TCOON:003:1,2019-11-19T22:18:00Z,26.8015,-97.4706,0.0,5.9,115.0,7.4,'11111222,11111222,11111222' 
TCOON,ioos:station:TCOON:003:1,2019-11-19T23:18:00Z,26.8015,-97.4706,0.0,6.0,109.0,7.0,'11111222,11111222,11111222' 
TCOON,ioos:station:TCOON:003:1,2019-11-20T00:18:00Z,26.8015,-97.4706,0.0,4.5,100.0,5.6,'11111222,11111222,11111222' 
TCOON,ioos:station:TCOON:003:1,2019-11-20T01:18:00Z,26.8015,-97.4706,0.0,4.8,109.0,5.8,'11111222,11111222,11111222' 